owner,sensor,date,latitude,longitude,air_temperature,qcFlag 
WAVCIS,ioos:station:WAVCIS:CSI09:1,2008-02-01T00:00:00Z,29.1015,-89.9782,21.85,11111222 
WAVCIS,ioos:station:WAVCIS:CSI09:1,2008-02-01T01:00:00Z,29.1015,-89.9782,16.55,11111222 
WAVCIS,ioos:station:WAVCIS:CSI09:1,2008-02-01T02:00:00Z,29.1015,-89.9782,16.46,11111222 
WAVCIS,ioos:station:WAVCIS:CSI09:1,2008-02-01T03:00:00Z,29.1015,-89.9782,15.55,11111222 
WAVCIS,ioos:station:WAVCIS:CSI09:1,2008-02-01T04:00:00Z,29.1015,-89.9782,14.97,11111222 
WAVCIS,ioos:station:WAVCIS:CSI09:1,2008-02-01T05:00:00Z,29.1015,-89.9782,14.2,11111222 
WAVCIS,ioos:station:WAVCIS:CSI09:1,2008-02-01T06:00:00Z,29.1015,-89.9782,13.94,11111222 
WAVCIS,ioos:station:WAVCIS:CSI09:1,2008-02-01T07:00:00Z,29.1015,-89.9782,12.88,11111222 
WAVCIS,ioos:station:WAVCIS:CSI09:1,2008-02-01T08:00:00Z,29.1015,-89.9782,11.59,11111222 
WAVCIS,ioos:station:WAVCIS:CSI09:1,2008-02-01T09:00:00Z,29.1015,-89.9782,10.48,11111222 
WAVCIS,ioos:station:WAVCIS:CSI09:1,2008-02-01T10:00:00Z,29.1015,-89.9782,9.42,11111222 
WAVCIS,ioos:station:WAVCIS:CSI09:1,2008-02-01T11:00:00Z,29.1015,-89.9782,8.11,11111222 
WAVCIS,ioos:station:WAVCIS:CSI09:1,2008-02-01T12:00:00Z,29.1015,-89.9782,7.02,11111222 
WAVCIS,ioos:station:WAVCIS:CSI09:1,2008-02-01T13:00:00Z,29.1015,-89.9782,6.64,11111222 
WAVCIS,ioos:station:WAVCIS:CSI09:1,2008-02-01T14:00:00Z,29.1015,-89.9782,6.25,11111222 
WAVCIS,ioos:station:WAVCIS:CSI09:1,2008-02-01T15:00:00Z,29.1015,-89.9782,6.09,11111222 
WAVCIS,ioos:station:WAVCIS:CSI09:1,2008-02-01T16:00:00Z,29.1015,-89.9782,6.45,11111222 
WAVCIS,ioos:station:WAVCIS:CSI09:1,2008-02-01T17:00:00Z,29.1015,-89.9782,7.1,11111222 
WAVCIS,ioos:station:WAVCIS:CSI09:1,2008-02-01T18:00:00Z,29.1015,-89.9782,8.02,11111222 
WAVCIS,ioos:station:WAVCIS:CSI09:1,2008-02-01T19:00:00Z,29.1015,-89.9782,9.17,11111222 
WAVCIS,ioos:station:WAVCIS:CSI09:1,2008-02-01T20:00:00Z,29.1015,-89.9782,9.72,11111222 
WAVCIS,ioos:station:WAVCIS:CSI09:1,2008-02-01T21:00:00Z,29.1015,-89.9782,10.83,11111222 
WAVCIS,ioos:station:WAVCIS:CSI09:1,2008-02-01T22:00:00Z,29.1015,-89.9782,12.03,11111222 
WAVCIS,ioos:station:WAVCIS:CSI09:1,2008-02-01T23:00:00Z,29.1015,-89.9782,12.48,11111222 
WAVCIS,ioos:station:WAVCIS:CSI09:1,2008-02-02T00:00:00Z,29.1015,-89.9782,10.84,11111222 
WAVCIS,ioos:station:WAVCIS:CSI09:1,2008-02-02T01:00:00Z,29.1015,-89.9782,11.15,11111222 
WAVCIS,ioos:station:WAVCIS:CSI09:1,2008-02-02T02:00:00Z,29.1015,-89.9782,10.96,11111222 
WAVCIS,ioos:station:WAVCIS:CSI09:1,2008-02-02T03:00:00Z,29.1015,-89.9782,11.03,11111222 
WAVCIS,ioos:station:WAVCIS:CSI09:1,2008-02-02T04:00:00Z,29.1015,-89.9782,11.1,11111222 
WAVCIS,ioos:station:WAVCIS:CSI09:1,2008-02-02T05:00:00Z,29.1015,-89.9782,11.16,11111222 
WAVCIS,ioos:station:WAVCIS:CSI09:1,2008-02-02T06:00:00Z,29.1015,-89.9782,11.3,11111222 
WAVCIS,ioos:station:WAVCIS:CSI09:1,2008-02-02T07:00:00Z,29.1015,-89.9782,11.41,11111222 
WAVCIS,ioos:station:WAVCIS:CSI09:1,2008-02-02T08:00:00Z,29.1015,-89.9782,11.24,11111222 
WAVCIS,ioos:station:WAVCIS:CSI09:1,2008-02-02T09:00:00Z,29.1015,-89.9782,11.46,11111222 
WAVCIS,ioos:station:WAVCIS:CSI09:1,2008-02-02T10:00:00Z,29.1015,-89.9782,12.22,11111222 
WAVCIS,ioos:station:WAVCIS:CSI09:1,2008-02-02T11:00:00Z,29.1015,-89.9782,13.05,11111222 
WAVCIS,ioos:station:WAVCIS:CSI09:1,2008-02-02T12:00:00Z,29.1015,-89.9782,13.39,11111222 
WAVCIS,ioos:station:WAVCIS:CSI09:1,2008-02-02T13:00:00Z,29.1015,-89.9782,13.73,11111222 
WAVCIS,ioos:station:WAVCIS:CSI09:1,2008-02-02T14:00:00Z,29.1015,-89.9782,14.14,11111222 
WAVCIS,ioos:station:WAVCIS:CSI09:1,2008-02-02T15:00:00Z,29.1015,-89.9782,14.52,11111222 
WAVCIS,ioos:station:WAVCIS:CSI09:1,2008-02-02T16:00:00Z,29.1015,-89.9782,15.49,11111222 
WAVCIS,ioos:station:WAVCIS:CSI09:1,2008-02-02T17:00:00Z,29.1015,-89.9782,15.53,11111222 
WAVCIS,ioos:station:WAVCIS:CSI09:1,2008-02-02T18:00:00Z,29.1015,-89.9782,16.17,11111222 
WAVCIS,ioos:station:WAVCIS:CSI09:1,2008-02-02T19:00:00Z,29.1015,-89.9782,16.88,11111222 
WAVCIS,ioos:station:WAVCIS:CSI09:1,2008-02-02T20:00:00Z,29.1015,-89.9782,17.31,11111222 
WAVCIS,ioos:station:WAVCIS:CSI09:1,2008-02-02T21:00:00Z,29.1015,-89.9782,17.94,11111222 
WAVCIS,ioos:station:WAVCIS:CSI09:1,2008-02-02T22:00:00Z,29.1015,-89.9782,17.99,11111222 
WAVCIS,ioos:station:WAVCIS:CSI09:1,2008-02-02T23:00:00Z,29.1015,-89.9782,17.67,11111222 
WAVCIS,ioos:station:WAVCIS:CSI09:1,2008-02-03T00:00:00Z,29.1015,-89.9782,16.88,11111222 
WAVCIS,ioos:station:WAVCIS:CSI09:1,2008-02-03T01:00:00Z,29.1015,-89.9782,16.88,11111222 
WAVCIS,ioos:station:WAVCIS:CSI09:1,2008-02-03T02:00:00Z,29.1015,-89.9782,16.75,11111222 
WAVCIS,ioos:station:WAVCIS:CSI09:1,2008-02-03T03:00:00Z,29.1015,-89.9782,16.65,11111222 
WAVCIS,ioos:station:WAVCIS:CSI09:1,2008-02-03T04:00:00Z,29.1015,-89.9782,16.92,11111222 
WAVCIS,ioos:station:WAVCIS:CSI09:1,2008-02-03T05:00:00Z,29.1015,-89.9782,17.19,11111222 
WAVCIS,ioos:station:WAVCIS:CSI09:1,2008-02-03T06:00:00Z,29.1015,-89.9782,17.69,11111222 
WAVCIS,ioos:station:WAVCIS:CSI09:1,2008-02-03T07:00:00Z,29.1015,-89.9782,17.9,11111222 
WAVCIS,ioos:station:WAVCIS:CSI09:1,2008-02-03T08:00:00Z,29.1015,-89.9782,18.03,11111222 
WAVCIS,ioos:station:WAVCIS:CSI09:1,2008-02-03T09:00:00Z,29.1015,-89.9782,18.07,11111222 
WAVCIS,ioos:station:WAVCIS:CSI09:1,2008-02-03T10:00:00Z,29.1015,-89.9782,17.99,11111222 
WAVCIS,ioos:station:WAVCIS:CSI09:1,2008-02-03T11:00:00Z,29.1015,-89.9782,18.13,11111222 
WAVCIS,ioos:station:WAVCIS:CSI09:1,2008-02-03T12:00:00Z,29.1015,-89.9782,18.14,11111222 
WAVCIS,ioos:station:WAVCIS:CSI09:1,2008-02-03T13:00:00Z,29.1015,-89.9782,18.12,11111222 
WAVCIS,ioos:station:WAVCIS:CSI09:1,2008-02-03T14:00:00Z,29.1015,-89.9782,18.59,11111222 
WAVCIS,ioos:station:WAVCIS:CSI09:1,2008-02-03T15:00:00Z,29.1015,-89.9782,19.0,11111222 
WAVCIS,ioos:station:WAVCIS:CSI09:1,2008-02-03T16:00:00Z,29.1015,-89.9782,19.24,11111222 
WAVCIS,ioos:station:WAVCIS:CSI09:1,2008-02-03T17:00:00Z,29.1015,-89.9782,19.26,11111222 
WAVCIS,ioos:station:WAVCIS:CSI09:1,2008-02-03T18:00:00Z,29.1015,-89.9782,19.38,11111222 
WAVCIS,ioos:station:WAVCIS:CSI09:1,2008-02-03T19:00:00Z,29.1015,-89.9782,19.5,11111222 
WAVCIS,ioos:station:WAVCIS:CSI09:1,2008-02-03T20:00:00Z,29.1015,-89.9782,19.54,11111222 
WAVCIS,ioos:station:WAVCIS:CSI09:1,2008-02-03T21:00:00Z,29.1015,-89.9782,19.41,11111222 
WAVCIS,ioos:station:WAVCIS:CSI09:1,2008-02-03T22:00:00Z,29.1015,-89.9782,19.48,11111222 
WAVCIS,ioos:station:WAVCIS:CSI09:1,2008-02-03T23:00:00Z,29.1015,-89.9782,19.42,11111222 
WAVCIS,ioos:station:WAVCIS:CSI09:1,2008-02-04T00:00:00Z,29.1015,-89.9782,19.34,11111222 
WAVCIS,ioos:station:WAVCIS:CSI09:1,2008-02-04T01:00:00Z,29.1015,-89.9782,19.27,11111222 
WAVCIS,ioos:station:WAVCIS:CSI09:1,2008-02-04T02:00:00Z,29.1015,-89.9782,19.5,11111222 
WAVCIS,ioos:station:WAVCIS:CSI09:1,2008-02-04T03:00:00Z,29.1015,-89.9782,19.61,11111222 
WAVCIS,ioos:station:WAVCIS:CSI09:1,2008-02-04T04:00:00Z,29.1015,-89.9782,19.72,11111222 
WAVCIS,ioos:station:WAVCIS:CSI09:1,2008-02-04T05:00:00Z,29.1015,-89.9782,19.66,11111222 
WAVCIS,ioos:station:WAVCIS:CSI09:1,2008-02-04T06:00:00Z,29.1015,-89.9782,19.81,11111222 
WAVCIS,ioos:station:WAVCIS:CSI09:1,2008-02-04T07:00:00Z,29.1015,-89.9782,19.65,11111222 
WAVCIS,ioos:station:WAVCIS:CSI09:1,2008-02-04T08:00:00Z,29.1015,-89.9782,19.69,11111222 
WAVCIS,ioos:station:WAVCIS:CSI09:1,2008-02-04T09:00:00Z,29.1015,-89.9782,20.1,11111222 
WAVCIS,ioos:station:WAVCIS:CSI09:1,2008-02-04T10:00:00Z,29.1015,-89.9782,19.92,11111222 
WAVCIS,ioos:station:WAVCIS:CSI09:1,2008-02-04T11:00:00Z,29.1015,-89.9782,19.78,11111222 
WAVCIS,ioos:station:WAVCIS:CSI09:1,2008-02-04T12:00:00Z,29.1015,-89.9782,19.74,11111222 
WAVCIS,ioos:station:WAVCIS:CSI09:1,2008-02-04T13:00:00Z,29.1015,-89.9782,19.69,11111222 
WAVCIS,ioos:station:WAVCIS:CSI09:1,2008-02-04T14:00:00Z,29.1015,-89.9782,19.52,11111222 
WAVCIS,ioos:station:WAVCIS:CSI09:1,2008-02-04T15:00:00Z,29.1015,-89.9782,19.8,11111222 
WAVCIS,ioos:station:WAVCIS:CSI09:1,2008-02-04T16:00:00Z,29.1015,-89.9782,19.87,11111222 
WAVCIS,ioos:station:WAVCIS:CSI09:1,2008-02-04T17:00:00Z,29.1015,-89.9782,20.16,11111222 
WAVCIS,ioos:station:WAVCIS:CSI09:1,2008-02-04T18:00:00Z,29.1015,-89.9782,20.38,11111222 
WAVCIS,ioos:station:WAVCIS:CSI09:1,2008-02-04T19:00:00Z,29.1015,-89.9782,20.2,11111222 
WAVCIS,ioos:station:WAVCIS:CSI09:1,2008-02-04T20:00:00Z,29.1015,-89.9782,20.35,11111222 
WAVCIS,ioos:station:WAVCIS:CSI09:1,2008-02-04T21:00:00Z,29.1015,-89.9782,20.4,11111222 
WAVCIS,ioos:station:WAVCIS:CSI09:1,2008-02-04T22:00:00Z,29.1015,-89.9782,20.62,11111222 
WAVCIS,ioos:station:WAVCIS:CSI09:1,2008-02-04T23:00:00Z,29.1015,-89.9782,20.4,11111222 
WAVCIS,ioos:station:WAVCIS:CSI09:1,2008-02-05T00:00:00Z,29.1015,-89.9782,20.25,11111222 
WAVCIS,ioos:station:WAVCIS:CSI09:1,2008-02-05T01:00:00Z,29.1015,-89.9782,19.92,11111222 
WAVCIS,ioos:station:WAVCIS:CSI09:1,2008-02-05T02:00:00Z,29.1015,-89.9782,19.99,11111222 
WAVCIS,ioos:station:WAVCIS:CSI09:1,2008-02-05T03:00:00Z,29.1015,-89.9782,20.28,11111222 
WAVCIS,ioos:station:WAVCIS:CSI09:1,2008-02-05T04:00:00Z,29.1015,-89.9782,20.14,11111222 
WAVCIS,ioos:station:WAVCIS:CSI09:1,2008-02-05T05:00:00Z,29.1015,-89.9782,20.23,11111222 
WAVCIS,ioos:station:WAVCIS:CSI09:1,2008-02-05T06:00:00Z,29.1015,-89.9782,19.98,11111222 
WAVCIS,ioos:station:WAVCIS:CSI09:1,2008-02-05T07:00:00Z,29.1015,-89.9782,20.08,11111222 
WAVCIS,ioos:station:WAVCIS:CSI09:1,2008-02-05T08:00:00Z,29.1015,-89.9782,20.02,11111222 
WAVCIS,ioos:station:WAVCIS:CSI09:1,2008-02-05T09:00:00Z,29.1015,-89.9782,19.96,11111222 
WAVCIS,ioos:station:WAVCIS:CSI09:1,2008-02-05T10:00:00Z,29.1015,-89.9782,19.99,11111222 
WAVCIS,ioos:station:WAVCIS:CSI09:1,2008-02-05T11:00:00Z,29.1015,-89.9782,20.06,11111222 
WAVCIS,ioos:station:WAVCIS:CSI09:1,2008-02-05T12:00:00Z,29.1015,-89.9782,20.13,11111222 
WAVCIS,ioos:station:WAVCIS:CSI09:1,2008-02-05T13:00:00Z,29.1015,-89.9782,20.13,11111222 
WAVCIS,ioos:station:WAVCIS:CSI09:1,2008-02-05T14:00:00Z,29.1015,-89.9782,20.32,11111222 
WAVCIS,ioos:station:WAVCIS:CSI09:1,2008-02-05T15:00:00Z,29.1015,-89.9782,20.27,11111222 
WAVCIS,ioos:station:WAVCIS:CSI09:1,2008-02-05T16:00:00Z,29.1015,-89.9782,20.39,11111222 
WAVCIS,ioos:station:WAVCIS:CSI09:1,2008-02-05T17:00:00Z,29.1015,-89.9782,20.51,11111222 
WAVCIS,ioos:station:WAVCIS:CSI09:1,2008-02-05T18:00:00Z,29.1015,-89.9782,20.75,11111222 
WAVCIS,ioos:station:WAVCIS:CSI09:1,2008-02-05T19:00:00Z,29.1015,-89.9782,20.67,11111222 
WAVCIS,ioos:station:WAVCIS:CSI09:1,2008-02-05T20:00:00Z,29.1015,-89.9782,20.68,11111222 
WAVCIS,ioos:station:WAVCIS:CSI09:1,2008-02-05T21:00:00Z,29.1015,-89.9782,20.84,11111222 
WAVCIS,ioos:station:WAVCIS:CSI09:1,2008-02-05T22:00:00Z,29.1015,-89.9782,21.07,11111222 
WAVCIS,ioos:station:WAVCIS:CSI09:1,2008-02-05T23:00:00Z,29.1015,-89.9782,21.09,11111222 
WAVCIS,ioos:station:WAVCIS:CSI09:1,2008-02-06T00:00:00Z,29.1015,-89.9782,20.95,11111222 
WAVCIS,ioos:station:WAVCIS:CSI09:1,2008-02-06T01:00:00Z,29.1015,-89.9782,20.77,11111222 
WAVCIS,ioos:station:WAVCIS:CSI09:1,2008-02-06T02:00:00Z,29.1015,-89.9782,20.81,11111222 
WAVCIS,ioos:station:WAVCIS:CSI09:1,2008-02-06T03:00:00Z,29.1015,-89.9782,20.7,11111222 
WAVCIS,ioos:station:WAVCIS:CSI09:1,2008-02-06T04:00:00Z,29.1015,-89.9782,20.78,11111222 
WAVCIS,ioos:station:WAVCIS:CSI09:1,2008-02-06T05:00:00Z,29.1015,-89.9782,20.76,11111222 
WAVCIS,ioos:station:WAVCIS:CSI09:1,2008-02-06T06:00:00Z,29.1015,-89.9782,20.85,11111222 
WAVCIS,ioos:station:WAVCIS:CSI09:1,2008-02-06T07:00:00Z,29.1015,-89.9782,21.06,11111222 
WAVCIS,ioos:station:WAVCIS:CSI09:1,2008-02-06T08:00:00Z,29.1015,-89.9782,21.2,11111222 
WAVCIS,ioos:station:WAVCIS:CSI09:1,2008-02-06T09:00:00Z,29.1015,-89.9782,22.01,11111222 
WAVCIS,ioos:station:WAVCIS:CSI09:1,2008-02-06T10:00:00Z,29.1015,-89.9782,22.21,11111222 
WAVCIS,ioos:station:WAVCIS:CSI09:1,2008-02-06T11:00:00Z,29.1015,-89.9782,21.67,11111222 
WAVCIS,ioos:station:WAVCIS:CSI09:1,2008-02-06T12:00:00Z,29.1015,-89.9782,19.91,11111222 
WAVCIS,ioos:station:WAVCIS:CSI09:1,2008-02-06T13:00:00Z,29.1015,-89.9782,15.34,11111222 
WAVCIS,ioos:station:WAVCIS:CSI09:1,2008-02-06T14:00:00Z,29.1015,-89.9782,15.84,11111222 
WAVCIS,ioos:station:WAVCIS:CSI09:1,2008-02-06T15:00:00Z,29.1015,-89.9782,16.17,11111222 
WAVCIS,ioos:station:WAVCIS:CSI09:1,2008-02-06T16:00:00Z,29.1015,-89.9782,16.18,11111222 
WAVCIS,ioos:station:WAVCIS:CSI09:1,2008-02-06T17:00:00Z,29.1015,-89.9782,16.53,11111222 
WAVCIS,ioos:station:WAVCIS:CSI09:1,2008-02-06T18:00:00Z,29.1015,-89.9782,17.16,11111222 
WAVCIS,ioos:station:WAVCIS:CSI09:1,2008-02-06T19:00:00Z,29.1015,-89.9782,17.6,11111222 
WAVCIS,ioos:station:WAVCIS:CSI09:1,2008-02-06T20:00:00Z,29.1015,-89.9782,17.54,11111222 
WAVCIS,ioos:station:WAVCIS:CSI09:1,2008-02-06T21:00:00Z,29.1015,-89.9782,17.55,11111222 
WAVCIS,ioos:station:WAVCIS:CSI09:1,2008-02-06T22:00:00Z,29.1015,-89.9782,17.55,11111222 
WAVCIS,ioos:station:WAVCIS:CSI09:1,2008-02-06T23:00:00Z,29.1015,-89.9782,18.07,11111222 
WAVCIS,ioos:station:WAVCIS:CSI09:1,2008-02-07T00:00:00Z,29.1015,-89.9782,16.94,11111222 
WAVCIS,ioos:station:WAVCIS:CSI09:1,2008-02-07T01:00:00Z,29.1015,-89.9782,16.44,11111222 
WAVCIS,ioos:station:WAVCIS:CSI09:1,2008-02-07T02:00:00Z,29.1015,-89.9782,15.98,11111222 
WAVCIS,ioos:station:WAVCIS:CSI09:1,2008-02-07T03:00:00Z,29.1015,-89.9782,15.58,11111222 
WAVCIS,ioos:station:WAVCIS:CSI09:1,2008-02-07T04:00:00Z,29.1015,-89.9782,14.93,11111222 
WAVCIS,ioos:station:WAVCIS:CSI09:1,2008-02-07T05:00:00Z,29.1015,-89.9782,14.17,11111222 
WAVCIS,ioos:station:WAVCIS:CSI09:1,2008-02-07T06:00:00Z,29.1015,-89.9782,13.64,11111222 
WAVCIS,ioos:station:WAVCIS:CSI09:1,2008-02-07T07:00:00Z,29.1015,-89.9782,13.02,11111222 
WAVCIS,ioos:station:WAVCIS:CSI09:1,2008-02-07T08:00:00Z,29.1015,-89.9782,12.43,11111222 
WAVCIS,ioos:station:WAVCIS:CSI09:1,2008-02-07T09:00:00Z,29.1015,-89.9782,12.0,11111222 
WAVCIS,ioos:station:WAVCIS:CSI09:1,2008-02-07T10:00:00Z,29.1015,-89.9782,11.76,11111222 
WAVCIS,ioos:station:WAVCIS:CSI09:1,2008-02-07T11:00:00Z,29.1015,-89.9782,11.45,11111222 
WAVCIS,ioos:station:WAVCIS:CSI09:1,2008-02-07T12:00:00Z,29.1015,-89.9782,11.12,11111222 
WAVCIS,ioos:station:WAVCIS:CSI09:1,2008-02-07T13:00:00Z,29.1015,-89.9782,11.31,11111222 
WAVCIS,ioos:station:WAVCIS:CSI09:1,2008-02-07T14:00:00Z,29.1015,-89.9782,11.86,11111222 
WAVCIS,ioos:station:WAVCIS:CSI09:1,2008-02-07T15:00:00Z,29.1015,-89.9782,11.94,11111222 
WAVCIS,ioos:station:WAVCIS:CSI09:1,2008-02-07T16:00:00Z,29.1015,-89.9782,12.18,11111222 
WAVCIS,ioos:station:WAVCIS:CSI09:1,2008-02-07T17:00:00Z,29.1015,-89.9782,12.16,11111222 
WAVCIS,ioos:station:WAVCIS:CSI09:1,2008-02-07T18:00:00Z,29.1015,-89.9782,12.29,11111222 
WAVCIS,ioos:station:WAVCIS:CSI09:1,2008-02-07T20:00:00Z,29.1015,-89.9782,14.23,11111222 
WAVCIS,ioos:station:WAVCIS:CSI09:1,2008-02-07T21:00:00Z,29.1015,-89.9782,16.37,11111222 
WAVCIS,ioos:station:WAVCIS:CSI09:1,2008-02-07T22:00:00Z,29.1015,-89.9782,16.15,11111222 
WAVCIS,ioos:station:WAVCIS:CSI09:1,2008-02-07T23:00:00Z,29.1015,-89.9782,15.56,11111222 
WAVCIS,ioos:station:WAVCIS:CSI09:1,2008-02-08T00:00:00Z,29.1015,-89.9782,13.38,11111222 
WAVCIS,ioos:station:WAVCIS:CSI09:1,2008-02-08T01:00:00Z,29.1015,-89.9782,13.61,11111222 
WAVCIS,ioos:station:WAVCIS:CSI09:1,2008-02-08T02:00:00Z,29.1015,-89.9782,14.42,11111222 
WAVCIS,ioos:station:WAVCIS:CSI09:1,2008-02-08T03:00:00Z,29.1015,-89.9782,14.82,11111222 
WAVCIS,ioos:station:WAVCIS:CSI09:1,2008-02-08T04:00:00Z,29.1015,-89.9782,15.11,11111222 
WAVCIS,ioos:station:WAVCIS:CSI09:1,2008-02-08T05:00:00Z,29.1015,-89.9782,15.32,11111222 
WAVCIS,ioos:station:WAVCIS:CSI09:1,2008-02-08T06:00:00Z,29.1015,-89.9782,15.52,11111222 
WAVCIS,ioos:station:WAVCIS:CSI09:1,2008-02-08T07:00:00Z,29.1015,-89.9782,15.81,11111222 
WAVCIS,ioos:station:WAVCIS:CSI09:1,2008-02-08T08:00:00Z,29.1015,-89.9782,16.18,11111222 
WAVCIS,ioos:station:WAVCIS:CSI09:1,2008-02-08T09:00:00Z,29.1015,-89.9782,16.16,11111222 
WAVCIS,ioos:station:WAVCIS:CSI09:1,2008-02-08T10:00:00Z,29.1015,-89.9782,16.28,11111222 
WAVCIS,ioos:station:WAVCIS:CSI09:1,2008-02-08T11:00:00Z,29.1015,-89.9782,14.91,11111222 
WAVCIS,ioos:station:WAVCIS:CSI09:1,2008-02-08T12:00:00Z,29.1015,-89.9782,13.13,11111222 
WAVCIS,ioos:station:WAVCIS:CSI09:1,2008-02-08T13:00:00Z,29.1015,-89.9782,12.56,11111222 
WAVCIS,ioos:station:WAVCIS:CSI09:1,2008-02-08T14:00:00Z,29.1015,-89.9782,12.72,11111222 
WAVCIS,ioos:station:WAVCIS:CSI09:1,2008-02-08T15:00:00Z,29.1015,-89.9782,12.86,11111222 
WAVCIS,ioos:station:WAVCIS:CSI09:1,2008-02-08T16:00:00Z,29.1015,-89.9782,13.53,11111222 
WAVCIS,ioos:station:WAVCIS:CSI09:1,2008-02-08T17:00:00Z,29.1015,-89.9782,13.91,11111222 
WAVCIS,ioos:station:WAVCIS:CSI09:1,2008-02-08T18:00:00Z,29.1015,-89.9782,14.28,11111222 
WAVCIS,ioos:station:WAVCIS:CSI09:1,2008-02-08T19:00:00Z,29.1015,-89.9782,14.58,11111222 
WAVCIS,ioos:station:WAVCIS:CSI09:1,2008-02-08T20:00:00Z,29.1015,-89.9782,15.08,11111222 
WAVCIS,ioos:station:WAVCIS:CSI09:1,2008-02-08T21:00:00Z,29.1015,-89.9782,16.11,11111222 
WAVCIS,ioos:station:WAVCIS:CSI09:1,2008-02-08T22:00:00Z,29.1015,-89.9782,16.37,11111222 
WAVCIS,ioos:station:WAVCIS:CSI09:1,2008-02-08T23:00:00Z,29.1015,-89.9782,16.51,11111222 
WAVCIS,ioos:station:WAVCIS:CSI09:1,2008-02-09T00:00:00Z,29.1015,-89.9782,15.84,11111222 
WAVCIS,ioos:station:WAVCIS:CSI09:1,2008-02-09T01:00:00Z,29.1015,-89.9782,16.2,11111222 
WAVCIS,ioos:station:WAVCIS:CSI09:1,2008-02-09T02:00:00Z,29.1015,-89.9782,16.47,11111222 
WAVCIS,ioos:station:WAVCIS:CSI09:1,2008-02-09T03:00:00Z,29.1015,-89.9782,16.8,11111222 
WAVCIS,ioos:station:WAVCIS:CSI09:1,2008-02-09T04:00:00Z,29.1015,-89.9782,17.14,11111222 
WAVCIS,ioos:station:WAVCIS:CSI09:1,2008-02-09T05:00:00Z,29.1015,-89.9782,17.59,11111222 
WAVCIS,ioos:station:WAVCIS:CSI09:1,2008-02-09T06:00:00Z,29.1015,-89.9782,18.08,11111222 
WAVCIS,ioos:station:WAVCIS:CSI09:1,2008-02-09T07:00:00Z,29.1015,-89.9782,18.21,11111222 
WAVCIS,ioos:station:WAVCIS:CSI09:1,2008-02-09T08:00:00Z,29.1015,-89.9782,18.66,11111222 
WAVCIS,ioos:station:WAVCIS:CSI09:1,2008-02-09T09:00:00Z,29.1015,-89.9782,17.93,11111222 
WAVCIS,ioos:station:WAVCIS:CSI09:1,2008-02-09T10:00:00Z,29.1015,-89.9782,18.48,11111222 
WAVCIS,ioos:station:WAVCIS:CSI09:1,2008-02-09T11:00:00Z,29.1015,-89.9782,17.94,11111222 
WAVCIS,ioos:station:WAVCIS:CSI09:1,2008-02-09T12:00:00Z,29.1015,-89.9782,17.13,11111222 
WAVCIS,ioos:station:WAVCIS:CSI09:1,2008-02-09T13:00:00Z,29.1015,-89.9782,17.29,11111222 
WAVCIS,ioos:station:WAVCIS:CSI09:1,2008-02-09T14:00:00Z,29.1015,-89.9782,17.85,11111222 
WAVCIS,ioos:station:WAVCIS:CSI09:1,2008-02-09T15:00:00Z,29.1015,-89.9782,18.5,11111222 
WAVCIS,ioos:station:WAVCIS:CSI09:1,2008-02-09T16:00:00Z,29.1015,-89.9782,18.99,11111222 
WAVCIS,ioos:station:WAVCIS:CSI09:1,2008-02-09T17:00:00Z,29.1015,-89.9782,19.94,11111222 
WAVCIS,ioos:station:WAVCIS:CSI09:1,2008-02-09T18:00:00Z,29.1015,-89.9782,19.45,11111222 
WAVCIS,ioos:station:WAVCIS:CSI09:1,2008-02-09T19:00:00Z,29.1015,-89.9782,21.04,11111222 
WAVCIS,ioos:station:WAVCIS:CSI09:1,2008-02-09T20:00:00Z,29.1015,-89.9782,20.05,11111222 
WAVCIS,ioos:station:WAVCIS:CSI09:1,2008-02-09T21:00:00Z,29.1015,-89.9782,20.63,11111222 
WAVCIS,ioos:station:WAVCIS:CSI09:1,2008-02-09T22:00:00Z,29.1015,-89.9782,22.69,11111222 
WAVCIS,ioos:station:WAVCIS:CSI09:1,2008-02-09T23:00:00Z,29.1015,-89.9782,21.16,11111222 
WAVCIS,ioos:station:WAVCIS:CSI09:1,2008-02-10T00:00:00Z,29.1015,-89.9782,18.96,11111222 
WAVCIS,ioos:station:WAVCIS:CSI09:1,2008-02-10T01:00:00Z,29.1015,-89.9782,18.7,11111222 
WAVCIS,ioos:station:WAVCIS:CSI09:1,2008-02-10T02:00:00Z,29.1015,-89.9782,18.51,11111222 
WAVCIS,ioos:station:WAVCIS:CSI09:1,2008-02-10T03:00:00Z,29.1015,-89.9782,18.15,11111222 
WAVCIS,ioos:station:WAVCIS:CSI09:1,2008-02-10T04:00:00Z,29.1015,-89.9782,18.05,11111222 
WAVCIS,ioos:station:WAVCIS:CSI09:1,2008-02-10T05:00:00Z,29.1015,-89.9782,17.84,11111222 
WAVCIS,ioos:station:WAVCIS:CSI09:1,2008-02-10T06:00:00Z,29.1015,-89.9782,17.76,11111222 
WAVCIS,ioos:station:WAVCIS:CSI09:1,2008-02-10T07:00:00Z,29.1015,-89.9782,17.55,11111222 
WAVCIS,ioos:station:WAVCIS:CSI09:1,2008-02-10T08:00:00Z,29.1015,-89.9782,17.4,11111222 
WAVCIS,ioos:station:WAVCIS:CSI09:1,2008-02-10T09:00:00Z,29.1015,-89.9782,17.11,11111222 
WAVCIS,ioos:station:WAVCIS:CSI09:1,2008-02-10T10:00:00Z,29.1015,-89.9782,17.29,11111222 
WAVCIS,ioos:station:WAVCIS:CSI09:1,2008-02-10T11:00:00Z,29.1015,-89.9782,16.9,11111222 
WAVCIS,ioos:station:WAVCIS:CSI09:1,2008-02-10T12:00:00Z,29.1015,-89.9782,17.0,11111222 
WAVCIS,ioos:station:WAVCIS:CSI09:1,2008-02-10T13:00:00Z,29.1015,-89.9782,16.71,11111222 
WAVCIS,ioos:station:WAVCIS:CSI09:1,2008-02-10T14:00:00Z,29.1015,-89.9782,17.68,11111222 
WAVCIS,ioos:station:WAVCIS:CSI09:1,2008-02-10T15:00:00Z,29.1015,-89.9782,17.48,11111222 
WAVCIS,ioos:station:WAVCIS:CSI09:1,2008-02-10T16:00:00Z,29.1015,-89.9782,17.44,11111222 
WAVCIS,ioos:station:WAVCIS:CSI09:1,2008-02-10T17:00:00Z,29.1015,-89.9782,17.56,11111222 
WAVCIS,ioos:station:WAVCIS:CSI09:1,2008-02-10T18:00:00Z,29.1015,-89.9782,17.69,11111222 
WAVCIS,ioos:station:WAVCIS:CSI09:1,2008-02-10T19:00:00Z,29.1015,-89.9782,17.54,11111222 
WAVCIS,ioos:station:WAVCIS:CSI09:1,2008-02-10T20:00:00Z,29.1015,-89.9782,17.71,11111222 
WAVCIS,ioos:station:WAVCIS:CSI09:1,2008-02-10T21:00:00Z,29.1015,-89.9782,17.82,11111222 
WAVCIS,ioos:station:WAVCIS:CSI09:1,2008-02-10T22:00:00Z,29.1015,-89.9782,17.91,11111222 
WAVCIS,ioos:station:WAVCIS:CSI09:1,2008-02-10T23:00:00Z,29.1015,-89.9782,17.95,11111222 
WAVCIS,ioos:station:WAVCIS:CSI09:1,2008-02-11T00:00:00Z,29.1015,-89.9782,17.39,11111222 
WAVCIS,ioos:station:WAVCIS:CSI09:1,2008-02-11T01:00:00Z,29.1015,-89.9782,17.27,11111222 
WAVCIS,ioos:station:WAVCIS:CSI09:1,2008-02-11T02:00:00Z,29.1015,-89.9782,17.2,11111222 
WAVCIS,ioos:station:WAVCIS:CSI09:1,2008-02-11T03:00:00Z,29.1015,-89.9782,17.41,11111222 
WAVCIS,ioos:station:WAVCIS:CSI09:1,2008-02-11T04:00:00Z,29.1015,-89.9782,17.44,11111222 
WAVCIS,ioos:station:WAVCIS:CSI09:1,2008-02-11T05:00:00Z,29.1015,-89.9782,17.45,11111222 
WAVCIS,ioos:station:WAVCIS:CSI09:1,2008-02-11T06:00:00Z,29.1015,-89.9782,17.57,11111222 
WAVCIS,ioos:station:WAVCIS:CSI09:1,2008-02-11T07:00:00Z,29.1015,-89.9782,17.61,11111222 
WAVCIS,ioos:station:WAVCIS:CSI09:1,2008-02-11T08:00:00Z,29.1015,-89.9782,17.68,11111222 
WAVCIS,ioos:station:WAVCIS:CSI09:1,2008-02-11T09:00:00Z,29.1015,-89.9782,17.37,11111222 
WAVCIS,ioos:station:WAVCIS:CSI09:1,2008-02-11T10:00:00Z,29.1015,-89.9782,17.07,11111222 
WAVCIS,ioos:station:WAVCIS:CSI09:1,2008-02-11T11:00:00Z,29.1015,-89.9782,17.04,11111222 
WAVCIS,ioos:station:WAVCIS:CSI09:1,2008-02-11T12:00:00Z,29.1015,-89.9782,17.13,11111222 
WAVCIS,ioos:station:WAVCIS:CSI09:1,2008-02-11T13:00:00Z,29.1015,-89.9782,17.48,11111222 
WAVCIS,ioos:station:WAVCIS:CSI09:1,2008-02-11T14:00:00Z,29.1015,-89.9782,18.06,11111222 
WAVCIS,ioos:station:WAVCIS:CSI09:1,2008-02-11T15:00:00Z,29.1015,-89.9782,18.42,11111222 
WAVCIS,ioos:station:WAVCIS:CSI09:1,2008-02-11T16:00:00Z,29.1015,-89.9782,18.51,11111222 
WAVCIS,ioos:station:WAVCIS:CSI09:1,2008-02-11T17:00:00Z,29.1015,-89.9782,18.56,11111222 
WAVCIS,ioos:station:WAVCIS:CSI09:1,2008-02-11T18:00:00Z,29.1015,-89.9782,18.68,11111222 
WAVCIS,ioos:station:WAVCIS:CSI09:1,2008-02-11T19:00:00Z,29.1015,-89.9782,18.69,11111222 
WAVCIS,ioos:station:WAVCIS:CSI09:1,2008-02-11T20:00:00Z,29.1015,-89.9782,18.65,11111222 
WAVCIS,ioos:station:WAVCIS:CSI09:1,2008-02-11T21:00:00Z,29.1015,-89.9782,18.76,11111222 
WAVCIS,ioos:station:WAVCIS:CSI09:1,2008-02-11T22:00:00Z,29.1015,-89.9782,18.39,11111222 
WAVCIS,ioos:station:WAVCIS:CSI09:1,2008-02-11T23:00:00Z,29.1015,-89.9782,18.31,11111222 
WAVCIS,ioos:station:WAVCIS:CSI09:1,2008-02-12T00:00:00Z,29.1015,-89.9782,18.31,11111222 
WAVCIS,ioos:station:WAVCIS:CSI09:1,2008-02-12T01:00:00Z,29.1015,-89.9782,18.36,11111222 
WAVCIS,ioos:station:WAVCIS:CSI09:1,2008-02-12T02:00:00Z,29.1015,-89.9782,18.28,11111222 
WAVCIS,ioos:station:WAVCIS:CSI09:1,2008-02-12T03:00:00Z,29.1015,-89.9782,18.36,11111222 
WAVCIS,ioos:station:WAVCIS:CSI09:1,2008-02-12T04:00:00Z,29.1015,-89.9782,18.27,11111222 
WAVCIS,ioos:station:WAVCIS:CSI09:1,2008-02-12T05:00:00Z,29.1015,-89.9782,18.7,11111222 